Zurück zum Katalog

ITASat 1

ITASAT

AktivAmateurfunkSSO
NORAD 43786·PAYLOAD·🇧🇷 Brazil

Gestartet Dec 3, 2018 von Vandenberg Space Force Base

Loading…

Nächste Überflüge (nächste 24 Stunden)

TLE

AktuellSource: AMSAT

Epoche: Sep 14, 2026, 02:50 UTC

1 43786U 18099AE  26257.11805822  .00005342  00000-0  25051-3 0  9994
2 43786  97.3936 306.8722 0013328  47.6971 312.5391 15.20014418426413

Verfolge ITASat 1 in Echtzeit mit AllMySat

Download on the App Store